This demonstration page uses our WeatherBlox Daily Observations layout. Learn more.

Left ArrowRight Arrow

39.29038, -76.61219

Hourly Observations for November 22, 2016

Temp ( °F °C ) Dew Point ( °F °C ) Humidity (%) Winds ( mph kmh ) Pressure ( in mb ) Visibility ( mi km ) Precip ( " mm )
12:54 am 00:54 undefined 37 2.8 16 -8.9 42 42 undefined N/A 30.05 1018 N/A 0.00 0.00
1:54 am 01:54 undefined 37 2.8 16 -8.9 42 42 undefined N/A 30.07 1018 N/A 0.00 0.00
2:54 am 02:54 undefined 36 2.2 16 -8.9 44 44 undefined N/A 30.07 1018 N/A 0.00 0.00
3:54 am 03:54 undefined 34 1.1 16 -8.9 48 48 undefined N/A 30.09 1019 N/A 0.00 0.00
4:54 am 04:54 undefined 34 1.1 17 -8.3 50 50 undefined N/A 30.10 1019 N/A 0.00 0.00
5:54 am 05:54 undefined 33 0.6 17 -8.3 52 52 undefined N/A 30.12 1020 N/A 0.00 0.00
6:54 am 06:54 undefined 34 1.1 17 -8.3 50 50 undefined N/A 30.14 1021 N/A 0.00 0.00
7:54 am 07:54 undefined 35 1.7 18 -7.8 50 50 undefined N/A 30.17 1022 N/A 0.00 0.00
8:54 am 08:54 undefined 38 3.3 19 -7.2 46 46 undefined N/A 30.18 1022 N/A 0.00 0.00
9:54 am 09:54 undefined 40 4.4 17 -8.3 40 40 undefined N/A 30.20 1023 N/A 0.00 0.00
10:54 am 10:54 undefined 41 5 17 -8.3 38 38 undefined N/A 30.20 1023 N/A 0.00 0.00
11:54 am 11:54 undefined 43 6.1 17 -8.3 35 35 undefined N/A 30.18 1022 N/A 0.00 0.00
12:54 pm 12:54 undefined 46 7.8 17 -8.3 31 31 undefined N/A 30.18 1022 N/A 0.00 0.00
1:54 pm 13:54 undefined 47 8.3 18 -7.8 31 31 undefined N/A 30.18 1022 N/A 0.00 0.00
2:54 pm 14:54 undefined 47 8.3 19 -7.2 33 33 undefined N/A 30.19 1022 N/A 0.00 0.00
3:54 pm 15:54 undefined 47 8.3 18 -7.8 31 31 undefined N/A 30.21 1023 N/A 0.00 0.00
4:54 pm 16:54 undefined 46 7.8 18 -7.8 32 32 undefined N/A 30.22 1024 N/A 0.00 0.00
5:54 pm 17:54 undefined 44 6.7 19 -7.2 37 37 undefined N/A 30.25 1024 N/A 0.00 0.00
6:54 pm 18:54 undefined 43 6.1 19 -7.2 38 38 undefined N/A 30.27 1025 N/A 0.00 0.00
7:54 pm 19:54 undefined 42 5.6 20 -6.7 41 41 undefined N/A 30.28 1025 N/A 0.00 0.00
8:54 pm 20:54 undefined 41 5 20 -6.7 43 43 undefined N/A 30.29 1026 N/A 0.00 0.00
9:54 pm 21:54 undefined 39 3.9 21 -6.1 48 48 undefined N/A 30.30 1026 N/A 0.00 0.00
10:54 pm 22:54 undefined 39 3.9 21 -6.1 48 48 undefined N/A 30.31 1027 N/A 0.00 0.00
11:54 pm 23:54 undefined 37 2.8 21 -6.1 52 52 undefined N/A 30.32 1027 N/A 0.00 0.00

Powered by AerisWeather